COSMOS 2148

导读

COSMOS 2148是苏联解体前后独联体(CIS)发射的“宇宙”系列卫星,该系列是世界上规模最大的人造卫星家族,多数为军用任务卫星,也混编试验航天器。1991年5月16日,这颗卫星成功发射入轨,延续了该系列常态化航天部署的节奏,作为冷战末期的航天资产,它承担着特定空间任务,是苏联航天遗产在独联体时代的延续,体现了当时独联体继承苏联航天体系的运行状态。

Basic Information
目录编号:
21304
目录名称:
COSMOS 2148
国际标识:
1991-033F
轨道中心:
EARTH
卫星名称:
COSMOS 2148
卫星全名:
--
卫星状态:
在轨 (已飞行12905 天)
发射日期:
1991-05-16 UTC
国别 :
俄罗斯(独联体) (CIS)
星等 :
--
This satellite is enrolled in the Space Conjunction Data Service (SCDS) and the current flight risk assessment level is: No High Risk
Orbit Information
数据来源 国际轨道数据 AOE轨道数据
星历时间 2026-09-13T17:36:15+0800
17小时前
查看轨道信息
2026-09-13T02:00:00+0800
1天前
查看轨道信息
半长轴 7776.431km 7776.429km
偏心率 0.0024442 0.0024379
轨道倾角 82.573° 82.574°
近地点辐角 110.958° 112.407°
升交点赤经 213.310° 213.728°
平近点角 5.019° 281.843°
近地点 1379.286km 1379.333km
远地点 1417.302km 1417.251km
周期 113.744分钟 113.744分钟
每日圈数 12.65996 12.659965
Detailed Information
使用方式:
暂无
2D Orbit Map
3D Orbit Map
Orbit Altitude Analysis Chart
Orbit Inclination Analysis Chart
Orbit Comprehensive Analysis Chart
View Comprehensive Chart
Miss Distance Evolution Trend with All Objects Subscribe to Flight Safety Assessment
Collision Probability Evolution Trend with All Objects Subscribe to Flight Safety Assessment